| time (UTC) | temp F | wind direction | speed MPH | gust MPH | rain 1hr in | rain 24hr in | rain mn in | humidity % | barometer mb |
| 20260509161854 | 53 | 288 | 0.0 | 0.0 | 0.00 | 0.00 | 0.00 | 75 | 1016.1 |
| 20260509161656 | 53 | 288 | 0.0 | 0.0 | 0.00 | 0.00 | 0.00 | 74 | 1016.1 |
| 20260509160854 | 53 | 288 | 0.0 | 0.0 | 0.00 | 0.00 | 0.00 | 73 | 1016.1 |
| 20260509155854 | 53 | 300 | 0.0 | 1.0 | 0.00 | 0.00 | 0.00 | 73 | 1016.2 |
| 20260509155656 | 53 | 246 | 0.0 | 10.0 | 0.00 | 0.00 | 0.00 | 73 | 1016.2 |
| 20260509154855 | 54 | 262 | 0.0 | 1.0 | 0.00 | 0.00 | 0.00 | 73 | 1016.1 |
| 20260509153855 | 54 | 262 | 0.0 | 1.0 | 0.00 | 0.00 | 0.00 | 74 | 1015.9 |
| 20260509152855 | 54 | 242 | 0.0 | 1.0 | 0.00 | 0.00 | 0.00 | 73 | 1015.9 |
| 20260509151854 | 53 | 241 | 0.0 | 1.0 | 0.00 | 0.00 | 0.00 | 71 | 1015.9 |
| 20260509151656 | 53 | 241 | 0.0 | 0.0 | 0.00 | 0.00 | 0.00 | 72 | 1015.9 |
| 20260509150854 | 53 | 241 | 0.0 | 1.0 | 0.00 | 0.00 | 0.00 | 71 | 1015.9 |
| 20260509145854 | 53 | 241 | 0.0 | 1.0 | 0.00 | 0.00 | 0.00 | 70 | 1016.0 |
| 20260509145656 | 53 | 241 | 0.0 | 0.0 | 0.00 | 0.00 | 0.00 | 70 | 1016.0 |
| 20260509144854 | 53 | 241 | 0.0 | 1.0 | 0.00 | 0.00 | 0.00 | 70 | 1015.9 |
| 20260509143854 | 53 | 231 | 0.0 | 1.0 | 0.00 | 0.00 | 0.00 | 70 | 1015.9 |
| 20260509143657 | 53 | 207 | 0.0 | 1.0 | 0.00 | 0.00 | 0.00 | 70 | 1015.9 |
| 20260509142854 | 54 | 207 | 0.0 | 0.0 | 0.00 | 0.00 | 0.00 | 68 | 1015.8 |
| 20260509141855 | 54 | 207 | 0.0 | 1.0 | 0.00 | 0.00 | 0.00 | 67 | 1015.7 |
| 20260509140853 | 54 | 194 | 0.0 | 2.0 | 0.00 | 0.00 | 0.00 | 67 | 1015.5 |
| 20260509135854 | 54 | 220 | 0.0 | 0.0 | 0.00 | 0.00 | 0.00 | 64 | 1015.4 |
| 20260509134854 | 55 | 264 | 0.0 | 0.0 | 0.00 | 0.00 | 0.00 | 66 | 1015.3 |
| 20260509133855 | 56 | 264 | 0.0 | 1.0 | 0.00 | 0.00 | 0.00 | 62 | 1015.2 |
| 20260509132854 | 55 | 183 | 0.0 | 1.0 | 0.00 | 0.00 | 0.00 | 62 | 1015.2 |
| 20260509131854 | 55 | 238 | 0.0 | 0.0 | 0.00 | 0.00 | 0.00 | 63 | 1015.1 |
| 20260509130854 | 55 | 52 | 0.0 | 1.0 | 0.00 | 0.00 | 0.00 | 63 | 1015.0 |
| 20260509125854 | 56 | 250 | 0.0 | 1.0 | 0.00 | 0.00 | 0.00 | 62 | 1014.9 |
| 20260509124853 | 56 | 249 | 0.0 | 1.0 | 0.00 | 0.00 | 0.00 | 61 | 1014.9 |
| 20260509123854 | 57 | 226 | 0.0 | 1.0 | 0.00 | 0.00 | 0.00 | 59 | 1014.8 |
| 20260509122854 | 56 | 214 | 0.0 | 1.0 | 0.00 | 0.00 | 0.00 | 58 | 1014.8 |
| 20260509121855 | 56 | 194 | 0.0 | 1.0 | 0.00 | 0.00 | 0.00 | 60 | 1014.7 |
| 20260509120855 | 56 | 212 | 0.0 | 1.0 | 0.00 | 0.00 | 0.00 | 59 | 1014.7 |
| 20260509115854 | 56 | 143 | 0.0 | 2.0 | 0.00 | 0.00 | 0.00 | 59 | 1014.6 |
| 20260509114854 | 56 | 220 | 0.0 | 0.0 | 0.00 | 0.00 | 0.00 | 61 | 1014.6 |
| 20260509113854 | 56 | 199 | 0.0 | 0.0 | 0.00 | 0.00 | 0.00 | 59 | 1014.6 |
| 20260509112855 | 56 | 231 | 0.0 | 1.0 | 0.00 | 0.00 | 0.00 | 60 | 1014.4 |
| 20260509111854 | 55 | 231 | 0.0 | 2.0 | 0.00 | 0.00 | 0.00 | 61 | 1014.3 |
| 20260509110853 | 55 | 233 | 0.0 | 1.0 | 0.00 | 0.00 | 0.00 | 62 | 1014.2 |
| 20260509105854 | 54 | 248 | 1.0 | 2.0 | 0.00 | 0.00 | 0.00 | 62 | 1014.0 |
| 20260509104855 | 55 | 245 | 0.0 | 0.0 | 0.00 | 0.00 | 0.00 | 63 | 1013.9 |
| 20260509103853 | 55 | 245 | 0.0 | 0.0 | 0.00 | 0.00 | 0.00 | 61 | 1013.8 |
| 20260509102853 | 56 | 249 | 0.0 | 1.0 | 0.00 | 0.00 | 0.00 | 62 | 1013.6 |
| 20260509101853 | 57 | 251 | 0.0 | 1.0 | 0.00 | 0.00 | 0.00 | 59 | 1013.4 |
| 20260509100853 | 58 | 259 | 0.0 | 1.0 | 0.00 | 0.00 | 0.00 | 55 | 1013.2 |
| 20260509095853 | 58 | 253 | 0.0 | 1.0 | 0.00 | 0.00 | 0.00 | 54 | 1013.1 |
| 20260509094853 | 58 | 261 | 0.0 | 1.0 | 0.00 | 0.00 | 0.00 | 56 | 1012.9 |
| 20260509093855 | 59 | 263 | 0.0 | 1.0 | 0.00 | 0.00 | 0.00 | 55 | 1012.7 |
| 20260509092854 | 59 | 203 | 0.0 | 0.0 | 0.00 | 0.00 | 0.00 | 55 | 1012.6 |
| 20260509091854 | 60 | 199 | 0.0 | 0.0 | 0.00 | 0.00 | 0.00 | 54 | 1012.5 |
| 20260509090854 | 60 | 239 | 0.0 | 2.0 | 0.00 | 0.00 | 0.00 | 54 | 1012.4 |
| 20260509085854 | 60 | 273 | 0.0 | 1.0 | 0.00 | 0.00 | 0.00 | 55 | 1012.3 |
| 20260509084854 | 60 | 229 | 0.0 | 0.0 | 0.00 | 0.00 | 0.00 | 52 | 1012.2 |
| 20260509083854 | 61 | 231 | 0.0 | 1.0 | 0.00 | 0.00 | 0.00 | 50 | 1012.1 |
| 20260509082855 | 62 | 231 | 0.0 | 1.0 | 0.00 | 0.00 | 0.00 | 49 | 1012.0 |
| 20260509081853 | 62 | 130 | 0.0 | 0.0 | 0.00 | 0.00 | 0.00 | 48 | 1011.8 |
| 20260509080854 | 62 | 231 | 0.0 | 0.0 | 0.00 | 0.00 | 0.00 | 47 | 1011.7 |
| 20260509075854 | 63 | 3 | 0.0 | 0.0 | 0.00 | 0.00 | 0.00 | 46 | 1011.6 |
| 20260509074854 | 63 | 17 | 0.0 | 1.0 | 0.00 | 0.00 | 0.00 | 46 | 1011.5 |
| 20260509073854 | 63 | 6 | 1.0 | 15.0 | 0.00 | 0.00 | 0.00 | 46 | 1011.5 |
| 20260509072854 | 64 | 105 | 0.0 | 1.0 | 0.00 | 0.00 | 0.00 | 45 | 1011.3 |
| 20260509071854 | 65 | 90 | 0.0 | 1.0 | 0.00 | 0.00 | 0.00 | 44 | 1011.1 |
| 20260509070854 | 65 | 226 | 0.0 | 2.0 | 0.00 | 0.00 | 0.00 | 44 | 1011.1 |
| 20260509065853 | 67 | 171 | 0.0 | 3.0 | 0.00 | 0.00 | 0.00 | 45 | 1010.9 |
| 20260509064855 | 66 | 192 | 0.0 | 1.0 | 0.00 | 0.00 | 0.00 | 46 | 1010.7 |
| 20260509063855 | 66 | 32 | 2.0 | 3.0 | 0.00 | 0.00 | 0.00 | 46 | 1010.5 |
| 20260509062855 | 66 | 137 | 1.0 | 0.0 | 0.00 | 0.00 | 0.00 | 49 | 1010.4 |
| 20260509061854 | 67 | 3 | 2.0 | 3.0 | 0.00 | 0.00 | 0.00 | 45 | 1010.2 |
| 20260509060854 | 66 | 116 | 0.0 | 1.0 | 0.00 | 0.00 | 0.00 | 51 | 1010.1 |
| 20260509055855 | 66 | 69 | 0.0 | 2.0 | 0.00 | 0.00 | 0.00 | 48 | 1010.1 |
| 20260509054853 | 66 | 47 | 1.0 | 2.0 | 0.00 | 0.00 | 0.00 | 47 | 1010.1 |
| 20260509053854 | 67 | 354 | 1.0 | 0.0 | 0.00 | 0.00 | 0.00 | 45 | 1010.1 |
| 20260509052853 | 68 | 57 | 0.0 | 1.0 | 0.00 | 0.00 | 0.00 | 45 | 1009.9 |
| 20260509051853 | 68 | 48 | 2.0 | 3.0 | 0.00 | 0.00 | 0.00 | 44 | 1009.8 |
| 20260509050855 | 68 | 62 | 1.0 | 2.0 | 0.00 | 0.00 | 0.00 | 44 | 1009.9 |
| 20260509045853 | 68 | 70 | 1.0 | 1.0 | 0.00 | 0.00 | 0.00 | 46 | 1009.9 |
| 20260509044853 | 68 | 342 | 0.0 | 1.0 | 0.00 | 0.00 | 0.00 | 47 | 1009.8 |
| 20260509043855 | 67 | 48 | 0.0 | 2.0 | 0.00 | 0.00 | 0.00 | 50 | 1009.8 |
| 20260509042853 | 67 | 8 | 2.0 | 3.0 | 0.00 | 0.00 | 0.00 | 52 | 1009.9 |
| 20260509041854 | 66 | 50 | 1.0 | 3.0 | 0.00 | 0.00 | 0.00 | 54 | 1009.8 |
| 20260509040853 | 67 | 16 | 3.0 | 3.0 | 0.00 | 0.00 | 0.00 | 53 | 1009.9 |
| 20260509035854 | 67 | 5 | 2.0 | 5.0 | 0.00 | 0.00 | 0.00 | 53 | 1009.6 |
| 20260509034853 | 67 | 342 | 1.0 | 2.0 | 0.00 | 0.00 | 0.00 | 53 | 1009.8 |
| 20260509033854 | 67 | 26 | 1.0 | 3.0 | 0.00 | 0.00 | 0.00 | 54 | 1009.7 |
| 20260509032854 | 68 | 22 | 2.0 | 3.0 | 0.00 | 0.00 | 0.00 | 55 | 1009.6 |
| 20260509031853 | 67 | 93 | 1.0 | 2.0 | 0.00 | 0.00 | 0.00 | 56 | 1009.7 |
| 20260509030854 | 67 | 330 | 1.0 | 2.0 | 0.00 | 0.00 | 0.00 | 59 | 1009.5 |
| 20260509025855 | 67 | 4 | 3.0 | 3.0 | 0.00 | 0.00 | 0.00 | 60 | 1009.5 |
| 20260509024854 | 67 | 54 | 2.0 | 3.0 | 0.00 | 0.00 | 0.00 | 60 | 1009.3 |
| 20260509023855 | 68 | 71 | 1.0 | 2.0 | 0.00 | 0.00 | 0.00 | 57 | 1009.3 |
| 20260509022853 | 68 | 292 | 0.0 | 1.0 | 0.00 | 0.00 | 0.00 | 57 | 1009.3 |
| 20260509021856 | 68 | 30 | 1.0 | 8.0 | 0.00 | 0.00 | 0.00 | 59 | 1009.4 |
| 20260509020856 | 67 | 57 | 1.0 | 3.0 | 0.00 | 0.00 | 0.00 | 60 | 1009.4 |
| 20260509015856 | 67 | 42 | 2.0 | 7.0 | 0.00 | 0.00 | 0.00 | 58 | 1009.3 |
| 20260509014856 | 66 | 36 | 0.0 | 1.0 | 0.00 | 0.00 | 0.00 | 61 | 1009.2 |
| 20260509013855 | 67 | 24 | 3.0 | 5.0 | 0.00 | 0.00 | 0.00 | 58 | 1009.2 |
| 20260509013657 | 67 | 5 | 1.0 | 1.0 | 0.00 | 0.00 | 0.00 | 61 | 1009.2 |
| 20260509012855 | 67 | 84 | 0.0 | 1.0 | 0.00 | 0.00 | 0.00 | 59 | 1009.3 |
| 20260509011856 | 67 | 52 | 1.0 | 3.0 | 0.00 | 0.00 | 0.00 | 56 | 1009.3 |
| 20260509010855 | 66 | 120 | 0.0 | 0.0 | 0.00 | 0.00 | 0.00 | 53 | 1009.1 |
| 20260509005856 | 65 | 31 | 1.0 | 3.0 | 0.00 | 0.00 | 0.00 | 53 | 1009.1 |
| 20260509004855 | 66 | 310 | 0.0 | 5.0 | 0.00 | 0.00 | 0.00 | 53 | 1009.1 |
| 20260509003855 | 67 | 124 | 1.0 | 2.0 | 0.00 | 0.00 | 0.00 | 52 | 1008.8 |
| 20260509002856 | 66 | 355 | 1.0 | 5.0 | 0.00 | 0.00 | 0.00 | 54 | 1008.7 |
| 20260509001855 | 67 | 214 | 1.0 | 3.0 | 0.00 | 0.00 | 0.00 | 51 | 1008.5 |
| 20260509000856 | 66 | 4 | 1.0 | 6.0 | 0.00 | 0.00 | 0.00 | 52 | 1008.3 |
| 20260508235856 | 67 | 20 | 1.0 | 1.0 | 0.00 | 0.00 | 0.00 | 52 | 1008.0 |
| 20260508234855 | 67 | 13 | 1.0 | 3.0 | 0.00 | 0.00 | 0.00 | 47 | 1008.0 |
| 20260508233856 | 68 | 73 | 0.0 | 3.0 | 0.00 | 0.00 | 0.00 | 45 | 1007.7 |
| 20260508232855 | 69 | 56 | 1.0 | 3.0 | 0.00 | 0.00 | 0.00 | 41 | 1007.8 |
| 20260508231856 | 69 | 170 | 0.0 | 2.0 | 0.00 | 0.00 | 0.00 | 42 | 1007.7 |
| 20260508230855 | 68 | 157 | 1.0 | 2.0 | 0.00 | 0.00 | 0.00 | 42 | 1007.6 |
| 20260508225855 | 68 | 63 | 0.0 | 2.0 | 0.00 | 0.00 | 0.00 | 44 | 1007.6 |
| 20260508224856 | 67 | 186 | 0.0 | 1.0 | 0.00 | 0.00 | 0.00 | 46 | 1007.5 |
| 20260508223855 | 67 | 146 | 1.0 | 3.0 | 0.00 | 0.00 | 0.00 | 44 | 1007.5 |
| 20260508222856 | 66 | 192 | 0.0 | 2.0 | 0.00 | 0.00 | 0.00 | 47 | 1007.3 |
| 20260508221856 | 66 | 212 | 1.0 | 3.0 | 0.00 | 0.00 | 0.00 | 45 | 1007.2 |
| 20260508220855 | 64 | 172 | 1.0 | 3.0 | 0.00 | 0.00 | 0.00 | 48 | 1007.1 |
| 20260508215856 | 64 | 188 | 0.0 | 1.0 | 0.00 | 0.00 | 0.00 | 47 | 1006.9 |
| 20260508214855 | 63 | 214 | 0.0 | 3.0 | 0.00 | 0.00 | 0.00 | 50 | 1006.8 |
| 20260508213856 | 60 | 205 | 0.0 | 1.0 | 0.00 | 0.00 | 0.00 | 53 | 1006.6 |
| 20260508212855 | 57 | 212 | 0.0 | 1.0 | 0.00 | 0.00 | 0.00 | 57 | 1006.4 |
| 20260508211856 | 56 | 223 | 1.0 | 3.0 | 0.00 | 0.00 | 0.00 | 56 | 1006.3 |
| 20260508211658 | 56 | 232 | 0.0 | 2.0 | 0.00 | 0.00 | 0.00 | 55 | 1006.3 |
| 20260508210856 | 56 | 211 | 0.0 | 2.0 | 0.00 | 0.00 | 0.00 | 56 | 1006.2 |
| 20260508205856 | 56 | 175 | 0.0 | 1.0 | 0.00 | 0.00 | 0.00 | 54 | 1006.0 |
| 20260508204855 | 55 | 197 | 0.0 | 2.0 | 0.00 | 0.00 | 0.00 | 55 | 1005.9 |
| 20260508203856 | 54 | 236 | 1.0 | 1.0 | 0.00 | 0.00 | 0.00 | 56 | 1005.7 |
| 20260508202854 | 54 | 205 | 1.0 | 2.0 | 0.00 | 0.00 | 0.00 | 54 | 1005.5 |
| 20260508201855 | 54 | 203 | 1.0 | 3.0 | 0.00 | 0.00 | 0.00 | 53 | 1005.4 |
| 20260508200855 | 54 | 171 | 1.0 | 3.0 | 0.00 | 0.00 | 0.00 | 52 | 1005.1 |
| 20260508195856 | 54 | 217 | 1.0 | 5.0 | 0.00 | 0.00 | 0.00 | 50 | 1004.8 |
| 20260508194855 | 54 | 206 | 1.0 | 3.0 | 0.00 | 0.00 | 0.00 | 48 | 1004.7 |
| 20260508193855 | 55 | 197 | 3.0 | 3.0 | 0.00 | 0.00 | 0.00 | 48 | 1004.4 |
| 20260508193657 | 55 | 204 | 2.0 | 5.0 | 0.00 | 0.00 | 0.00 | 48 | 1004.3 |
| 20260508192856 | 55 | 205 | 1.0 | 2.0 | 0.00 | 0.00 | 0.00 | 47 | 1004.2 |
| 20260508191855 | 55 | 167 | 1.0 | 3.0 | 0.00 | 0.00 | 0.00 | 46 | 1003.9 |
| 20260508191657 | 55 | 213 | 2.0 | 6.0 | 0.00 | 0.00 | 0.00 | 46 | 1003.9 |
| 20260508190856 | 54 | 102 | 2.0 | 3.0 | 0.00 | 0.00 | 0.00 | 46 | 1003.4 |
| 20260508185855 | 55 | 189 | 2.0 | 7.0 | 0.00 | 0.00 | 0.00 | 46 | 1003.3 |
| 20260508185658 | 55 | 211 | 2.0 | 5.0 | 0.00 | 0.00 | 0.00 | 45 | 1003.3 |
| 20260508184855 | 55 | 195 | 2.0 | 3.0 | 0.00 | 0.00 | 0.00 | 43 | 1003.1 |
| 20260508183856 | 55 | 172 | 2.0 | 3.0 | 0.00 | 0.00 | 0.00 | 42 | 1002.8 |
| 20260508182855 | 55 | 195 | 1.0 | 7.0 | 0.00 | 0.00 | 0.00 | 41 | 1002.7 |
| 20260508181856 | 56 | 188 | 0.0 | 1.0 | 0.00 | 0.00 | 0.00 | 41 | 1002.5 |
| 20260508181659 | 56 | 172 | 0.0 | 1.0 | 0.00 | 0.00 | 0.00 | 39 | 1002.4 |
| 20260508180855 | 56 | 246 | 1.0 | 2.0 | 0.00 | 0.00 | 0.00 | 38 | 1002.3 |
| 20260508175856 | 57 | 235 | 1.0 | 32.0 | 0.00 | 0.00 | 0.00 | 38 | 1002.3 |
| 20260508174855 | 57 | 94 | 1.0 | 2.0 | 0.00 | 0.00 | 0.00 | 38 | 1001.8 |
| 20260508173856 | 58 | 195 | 2.0 | 3.0 | 0.00 | 0.00 | 0.00 | 36 | 1001.5 |
| 20260508172855 | 58 | 155 | 1.0 | 3.0 | 0.00 | 0.00 | 0.00 | 35 | 1001.1 |
| 20260508171856 | 58 | 162 | 3.0 | 6.0 | 0.00 | 0.00 | 0.00 | 37 | 1000.9 |
| 20260508170855 | 59 | 196 | 2.0 | 7.0 | 0.00 | 0.00 | 0.00 | 36 | 1000.7 |
| 20260508165855 | 59 | 150 | 3.0 | 3.0 | 0.00 | 0.00 | 0.00 | 38 | 1000.6 |
| 20260508165658 | 59 | 169 | 3.0 | 9.0 | 0.00 | 0.00 | 0.00 | 38 | 1000.7 |
| 20260508164854 | 59 | 177 | 5.0 | 10.0 | 0.00 | 0.00 | 0.00 | 40 | 1000.8 |
| 20260508163855 | 60 | 212 | 3.0 | 8.0 | 0.00 | 0.00 | 0.00 | 43 | 1000.7 |
| 20260508162855 | 60 | 195 | 5.0 | 12.0 | 0.00 | 0.00 | 0.00 | 43 | 1000.7 |